Preview of NWS' New Version of Forecast
This preview is not operational and should not be used for support decisions.

Regional Weather Roundup (RWR)

Issued by National Weather Service (NWS)

                            
000
ASCA42 TJSJ 230110
RWRPR 
PUERTO RICO/U.S. VIRGIN ISLANDS HOURLY WEATHER ROUNDUP
NATIONAL WEATHER SERVICE SAN JUAN PR
900 PM AST WED MAY 22 2019

PRZ001>002-007>008-010-230200-
PUERTO RICO
  
CITY           SKY/WX    TMP DP  RH WIND       PRES   REMARKS
SAN JUAN LMM   PTCLDY    81  73  78 E8        29.97R                  
AGUADILLA      MOCLDY    79  73  83 E14       29.98R                  
$$

VIZ001>002-230200-
U.S. VIRGIN ISLANDS
  
CITY           SKY/WX    TMP DP  RH WIND       PRES   REMARKS
CHARLOTTE AMA  CLEAR     81  72  74 E9        29.96R                  
CHRISTIANSTED  PTCLDY    79  72  78 NE6       29.97R                  
$$

HOURLY WEATHER ROUNDUP FOR THE NEWS MEDIA
  
CITY           SKY/WX    TMP DP  RH WIND       PRES   REMARKS
ORLANDO        FAIR      78  64  61 E9        30.14R                  
NEW YORK       MOCLDY    61  51  70 S14       30.22S                  
NEWARK         MOCLDY    68  43  40 S12       30.20R                  
CHICAGO        MOCLDY    78  60  53 S15G25    29.83S                  
HARTFORD       FAIR      51  45  79 S8        30.27R                  
BOSTON         MOCLDY    58  41  53 SE9       30.26R                  
DALLAS         PTCLDY    88  67  49 S17G25    29.76S HX  91           
PHILADELPHIA   MOCLDY    69  44  40 SW12      30.24R                  
LOS ANGELES    MOSUNNY   61  50  67 SW5       29.74R                  
WASHINGTON DC  MOCLDY    65  48  54 S5        30.24R